Regional Weather Roundup
Issued by NWS Huntsville, AL

Home | Current Version | Previous Version | Text Only | Print | Product List | Glossary On
Versions: 1 2 3 4 5 6 7 8 9 10 11 12 13 14 15 16 17 18 19 20 21 22 23 24 25 26 27 28 29 30 31 32 33 34 35 36 37 38 39 40 41 42 43 44 45 46 47 48 49 50
000
ASUS44 KHUN 210010
RWRHUN

WEATHER ROUNDUP FOR THE TENNESSEE VALLEY
NATIONAL WEATHER SERVICE HUNTSVILLE AL
700 PM CDT WED SEP 20 2017

ALZ001>004-210100-
NORTHWEST ALABAMA

CITY           SKY/WX    TMP DP  RH WIND       PRES   REMARKS
SHOALS AIRPORT CLEAR     80  71  74 CALM      29.99S
6HR MIN TEMP:  80; 6HR MAX TEMP:  90;

SHOALS TVA RES   N/A     81 N/A N/A MISG        N/A
$$

ALZ005>007-016-210100-
NORTH CENTRAL ALABAMA

CITY           SKY/WX    TMP DP  RH WIND       PRES   REMARKS
DECATUR AP     CLOUDY    77  74  90 CALM      30.00R
6HR MIN TEMP:  76; 6HR MAX TEMP:  89;

HUNTSVILLE AP  PTCLDY    80  74  81 S3        30.00R
6HR MIN TEMP:  80; 6HR MAX TEMP:  91;

MERIDIANVILLE  CLEAR     81  70  69 CALM      30.01S
REDSTONE ARSN  PTCLDY    79  72  78 CALM      29.99S
VINEMONT AP    FAIR      79  73  80 CALM      30.04S
$$

ALZ008>010-210100-
NORTHEAST ALABAMA

CITY           SKY/WX    TMP DP  RH WIND       PRES   REMARKS
ALBERTVILLE    MOCLDY    79  75  89 CALM      30.02S
FORT PAYNE     CLEAR     73  68  83 CALM      30.01S
SCOTTSBORO HCN   N/A     75 N/A N/A MISG        N/A
VALLEY HEAD      N/A     73 N/A N/A MISG        N/A
$$

TNZ076-096-097-210100-
SOUTHEASTERN MIDDLE TENNESSEE

CITY           SKY/WX    TMP DP  RH WIND       PRES   REMARKS
TULLAHOMA      CLEAR     75  70  83 CALM      30.04R
WINCHESTER     CLEAR     77  70  78 CALM        N/A
$$

...SURROUNDING SITES...

CITY           SKY/WX    TMP DP  RH WIND       PRES   REMARKS
ATLANTA        MOCLDY    81  65  58 NW8       30.02R
ANNISTON       CLEAR     76  70  82 CALM      30.00S
BIRMINGHAM     PTCLDY    82  71  69 CALM      30.02R
CHATTANOOGA    PTCLDY    81  70  69 CALM      30.00S
DALTON         CLEAR     75  72  88 CALM      30.02S
GADSDEN        PTCLDY    78  74  87 W3        30.01R
GOLDEN TRNGL   PTCLDY    77  72  83 CALM      29.93S
HALEYVILLE     FAIR      77  75  93 CALM      30.03R
JACKSON TN     CLEAR     81  75  82 CALM      29.97S
MEMPHIS        PTCLDY    86  72  62 S7        29.95S HX  92
NASHVILLE      PTCLDY    81  71  71 CALM      29.99F
OXFORD MS      FAIR      81  73  78 CALM      29.98R
ROME           CLEAR     77  74  90 CALM      30.00R
SAVANNAH       CLEAR     81  77  89 CALM      29.97S
SELMER         CLEAR     79  77  94 CALM      29.98R
TUPELO         CLEAR     85  71  63 NE5       29.96S HX  90
TUSCALOOSA     MOCLDY    82  76  81 CALM      29.97S
$$

...GULF COAST WEATHER...

CITY           SKY/WX    TMP DP  RH WIND       PRES   REMARKS
GULFPORT       CLOUDY    83  75  77 CALM      29.96S HX  90
PASCAGOULA     CLOUDY    81  75  82 CALM      29.98R
MOBILE         TSTM      72  68  87 NW8       30.01R
GULF SHORES    CLOUDY    80  76  88 N5        29.98R
PENSACOLA      MOCLDY    81  73  76 W3        29.97R
DESTIN         CLEAR     86  73  65 VRB3      29.97R HX  93
PANAMA CITY    CLEAR     82  74  78 W6        29.98R
APPALACHICOLA  CLEAR     78  77  96 CALM      29.97S
$$




USA.gov is the U.S. government's official web portal to all federal, state and local government web resources and services.